,,Stat5,,Stat1,,Stat2,,Stat3,,Stat4,,Wind1,,Wind1,
time,status,PA1M_AVG,status,PR1M_SUM,status,RH1M_AVG,status,SR1M_AVG,status,TA1M_AVG,status,W1dAve1m,status,W1sAve1m,
2002-09-30, 00:00:00,VALID,918.711,VALID,0,VALID,97.7673,VALID,0,VALID,19.2012,VALID,113,VALID,0.932432,
2002-09-30, 00:01:00,VALID,918.714,VALID,0,VALID,97.747,VALID,0,VALID,19.2142,VALID,104,VALID,1.13429,
2002-09-30, 00:02:00,VALID,918.716,VALID,0,VALID,97.6478,VALID,0,VALID,19.2109,VALID,106,VALID,1.4371,
2002-09-30, 00:03:00,VALID,918.71,VALID,0,VALID,97.5893,VALID,0,VALID,19.2077,VALID,106,VALID,1.57248,
2002-09-30, 00:04:00,VALID,918.717,VALID,0,VALID,97.5155,VALID,-0.0169808,VALID,19.2139,VALID,121,VALID,1.47227,
2002-09-30, 00:05:00,VALID,918.706,VALID,0,VALID,97.5143,VALID,0,VALID,19.2171,VALID,113,VALID,1.28661,
2002-09-30, 00:06:00,VALID,918.693,VALID,0,VALID,97.5105,VALID,-0.0169808,VALID,19.2303,VALID,114,VALID,0.9377,
2002-09-30, 00:07:00,VALID,918.689,VALID,0,VALID,97.4863,VALID,0,VALID,19.2402,VALID,111,VALID,1.04143,
2002-09-30, 00:08:00,VALID,918.67,VALID,0,VALID,97.4431,VALID,-0.0169808,VALID,19.2271,VALID,107,VALID,1.28776,
2002-09-30, 00:09:00,VALID,918.655,VALID,0,VALID,97.4278,VALID,0,VALID,19.2012,VALID,96,VALID,1.00781,
2002-09-30, 00:10:00,VALID,918.641,VALID,0,VALID,97.4189,VALID,-0.0169808,VALID,19.1784,VALID,102,VALID,1.0767,
2002-09-30, 00:11:00,VALID,918.637,VALID,0,VALID,97.4176,VALID,-0.0339617,VALID,19.1722,VALID,116,VALID,1.19416,
2002-09-30, 00:12:00,VALID,918.616,VALID,0,VALID,97.4049,VALID,-0.0679233,VALID,19.1819,VALID,114,VALID,1.17127,
2002-09-30, 00:13:00,VALID,918.602,VALID,0,VALID,97.3451,VALID,0,VALID,19.1781,VALID,111,VALID,1.19742,
2002-09-30, 00:14:00,VALID,918.588,VALID,0,VALID,97.2371,VALID,-0.0169808,VALID,19.1786,VALID,105,VALID,0.930607,
2002-09-30, 00:15:00,VALID,918.587,VALID,0,VALID,97.1226,VALID,0,VALID,19.1918,VALID,116,VALID,1.16226,
2002-09-30, 00:16:00,VALID,918.578,VALID,0,VALID,97.0044,VALID,0,VALID,19.1883,VALID,116,VALID,0.89886,
2002-09-30, 00:17:00,VALID,918.576,VALID,0,VALID,96.9192,VALID,0,VALID,19.1943,VALID,124,VALID,0.680556,
2002-09-30, 00:18:00,VALID,918.571,VALID,0,VALID,96.8301,VALID,-0.0339617,VALID,19.2047,VALID,139,VALID,0.607617,
2002-09-30, 00:19:00,VALID,918.577,VALID,0,VALID,96.7856,VALID,-0.0339617,VALID,19.2241,VALID,114,VALID,0.437737,
2002-09-30, 00:20:00,VALID,918.568,VALID,0,VALID,96.736,VALID,0.0169808,VALID,19.2467,VALID,143,VALID,0.874349,
2002-09-30, 00:21:00,VALID,918.562,VALID,0,VALID,96.6508,VALID,-0.0339617,VALID,19.2527,VALID,129,VALID,0.795898,
2002-09-30, 00:22:00,VALID,918.557,VALID,0,VALID,96.5809,VALID,-0.0509425,VALID,19.2599,VALID,126,VALID,0.822917,
2002-09-30, 00:23:00,VALID,918.535,VALID,0,VALID,96.5021,VALID,-0.0169808,VALID,19.2599,VALID,132,VALID,0.837546,
2002-09-30, 00:24:00,VALID,918.53,VALID,0,VALID,96.5072,VALID,-0.0509425,VALID,19.2629,VALID,113,VALID,0.553085,
2002-09-30, 00:25:00,VALID,918.515,VALID,0,VALID,96.5211,VALID,-0.0339617,VALID,19.2626,VALID,124,VALID,0.905617,
2002-09-30, 00:26:00,VALID,918.513,VALID,0,VALID,96.5021,VALID,-0.0509425,VALID,19.2626,VALID,136,VALID,0.737362,
2002-09-30, 00:27:00,VALID,918.497,VALID,0,VALID,96.4639,VALID,0,VALID,19.2398,VALID,140,VALID,0.833133,
2002-09-30, 00:28:00,VALID,918.495,VALID,0,VALID,96.3762,VALID,0,VALID,19.2465,VALID,138,VALID,0.831503,
2002-09-30, 00:29:00,VALID,918.507,VALID,0,VALID,96.3202,VALID,-0.0169808,VALID,19.24,VALID,140,VALID,0.649306,
2002-09-30, 00:30:00,VALID,918.506,VALID,0,VALID,96.3139,VALID,-0.0169808,VALID,19.24,VALID,118,VALID,0.530859,
2002-09-30, 00:31:00,VALID,918.521,VALID,0,VALID,96.2643,VALID,0,VALID,19.2368,VALID,117,VALID,0.52983,
2002-09-30, 00:32:00,VALID,918.524,VALID,0,VALID,96.2312,VALID,-0.0509425,VALID,19.2335,VALID,123,VALID,0.402995,
2002-09-30, 00:33:00,VALID,918.524,VALID,0,VALID,96.2452,VALID,0.0849042,VALID,19.2323,VALID,134,VALID,0.402539,
2002-09-30, 00:34:00,VALID,918.527,VALID,0,VALID,96.2935,VALID,0.0679233,VALID,19.2291,VALID,110,VALID,0.245028,
2002-09-30, 00:35:00,VALID,918.52,VALID,0,VALID,96.2719,VALID,0.0509425,VALID,19.2289,VALID,137,VALID,0.707491,
2002-09-30, 00:36:00,VALID,918.509,VALID,0,VALID,96.291,VALID,0.0509425,VALID,19.2254,VALID,141,VALID,0.486178,
2002-09-30, 00:37:00,VALID,918.494,VALID,0,VALID,96.2567,VALID,0.0849042,VALID,19.2226,VALID,147,VALID,0.900971,
2002-09-30, 00:38:00,VALID,918.484,VALID,0,VALID,96.2834,VALID,0.0509425,VALID,19.2296,VALID,132,VALID,0.966682,
2002-09-30, 00:39:00,VALID,918.469,VALID,0,VALID,96.352,VALID,0.0679233,VALID,19.2092,VALID,142,VALID,0.744391,
2002-09-30, 00:40:00,VALID,918.451,VALID,0,VALID,96.4105,VALID,0.0509425,VALID,19.2256,VALID,134,VALID,0.47234,
2002-09-30, 00:41:00,VALID,918.45,VALID,0,VALID,96.4181,VALID,0.0339617,VALID,19.2256,VALID,125,VALID,0.852431,
2002-09-30, 00:42:00,VALID,918.449,VALID,0,VALID,96.4372,VALID,0.0509425,VALID,19.236,VALID,166,VALID,0.599805,
2002-09-30, 00:43:00,VALID,918.437,VALID,0,VALID,96.5313,VALID,0.0509425,VALID,19.2323,VALID,168,VALID,0.322206,
2002-09-30, 00:44:00,VALID,918.42,VALID,0,VALID,96.5351,VALID,0.0339617,VALID,19.2388,VALID,135,VALID,0.696615,
2002-09-30, 00:45:00,VALID,918.408,VALID,0,VALID,96.4614,VALID,0.101885,VALID,19.2455,VALID,142,VALID,0.832031,
2002-09-30, 00:46:00,VALID,918.393,VALID,0,VALID,96.4779,VALID,0.0679233,VALID,19.2452,VALID,127,VALID,0.571733,
2002-09-30, 00:47:00,VALID,918.386,VALID,0,VALID,96.441,VALID,0.0509425,VALID,19.2388,VALID,120,VALID,0.620864,
2002-09-30, 00:48:00,VALID,918.37,VALID,0,VALID,96.4334,VALID,0,VALID,19.2268,VALID,127,VALID,1.0645,
2002-09-30, 00:49:00,VALID,918.362,VALID,0,VALID,96.3978,VALID,-0.0169808,VALID,19.2465,VALID,130,VALID,0.632601,
2002-09-30, 00:50:00,VALID,918.359,VALID,0,VALID,96.4003,VALID,-0.0339617,VALID,19.2564,VALID,136,VALID,0.697381,
2002-09-30, 00:51:00,VALID,918.345,VALID,0,VALID,96.3762,VALID,-0.0509425,VALID,19.2524,VALID,100,VALID,0.537059,
2002-09-30, 00:52:00,VALID,918.33,VALID,0,VALID,96.3571,VALID,0,VALID,19.2658,VALID,152,VALID,0.370566,
2002-09-30, 00:53:00,VALID,918.32,VALID,0,VALID,96.3965,VALID,-0.0169808,VALID,19.2591,VALID,185,VALID,0.00868056,
2002-09-30, 00:54:00,VALID,918.311,VALID,0,VALID,96.441,VALID,0,VALID,19.2718,VALID,140,VALID,0.558203,
2002-09-30, 00:55:00,VALID,918.31,VALID,0,VALID,96.3101,VALID,-0.0169808,VALID,19.285,VALID,135,VALID,1.05516,
2002-09-30, 00:56:00,VALID,918.295,VALID,0,VALID,96.1626,VALID,-0.0169808,VALID,19.282,VALID,154,VALID,1.37044,
2002-09-30, 00:57:00,VALID,918.286,VALID,0,VALID,96.0646,VALID,-0.0169808,VALID,19.2986,VALID,143,VALID,0.693555,
2002-09-30, 00:58:00,VALID,918.291,VALID,0,VALID,96.0278,VALID,-0.0509425,VALID,19.3044,VALID,178,VALID,0.901515,
2002-09-30, 00:59:00,VALID,918.299,VALID,0,VALID,95.9527,VALID,0,VALID,19.3275,VALID,115,VALID,0.736213,
2002-09-30, 01:00:00,VALID,918.286,VALID,0,VALID,95.8752,VALID,-0.0339617,VALID,19.3235,VALID,126,VALID,0.824119,
2002-09-30, 01:01:00,VALID,918.289,VALID,0,VALID,95.7887,VALID,-0.0509425,VALID,19.3337,VALID,121,VALID,0.629856,
2002-09-30, 01:02:00,VALID,918.286,VALID,0,VALID,95.7887,VALID,-0.0339617,VALID,19.3434,VALID,133,VALID,0.0758272,
2002-09-30, 01:03:00,VALID,918.286,VALID,0,VALID,95.6463,VALID,-0.0339617,VALID,19.3399,VALID,107,VALID,0.402043,
2002-09-30, 01:04:00,VALID,918.271,VALID,0.2,VALID,95.6043,VALID,-0.0339617,VALID,19.3339,VALID,109,VALID,1.19489,
2002-09-30, 01:05:00,VALID,918.261,VALID,0,VALID,95.5967,VALID,-0.0509425,VALID,19.3175,VALID,99,VALID,0.688802,
2002-09-30, 01:06:00,VALID,918.258,VALID,0,VALID,95.6399,VALID,-0.0509425,VALID,19.3143,VALID,134,VALID,0.577148,
2002-09-30, 01:07:00,VALID,918.24,VALID,0,VALID,95.6374,VALID,-0.0339617,VALID,19.3203,VALID,120,VALID,1.00402,
2002-09-30, 01:08:00,VALID,918.228,VALID,0,VALID,95.5598,VALID,-0.0849042,VALID,19.3215,VALID,122,VALID,0.957248,
2002-09-30, 01:09:00,VALID,918.219,VALID,0,VALID,95.5191,VALID,-0.0169808,VALID,19.3143,VALID,113,VALID,0.830273,
2002-09-30, 01:10:00,VALID,918.203,VALID,0,VALID,95.5166,VALID,-0.0679233,VALID,19.3212,VALID,120,VALID,0.680634,
2002-09-30, 01:11:00,VALID,918.183,VALID,0,VALID,95.467,VALID,-0.0509425,VALID,19.3143,VALID,133,VALID,0.615119,
2002-09-30, 01:12:00,VALID,918.175,VALID,0,VALID,95.4772,VALID,-0.0509425,VALID,19.3178,VALID,141,VALID,0.880008,
2002-09-30, 01:13:00,VALID,918.157,VALID,0,VALID,95.5267,VALID,-0.0339617,VALID,19.3409,VALID,147,VALID,1.03822,
2002-09-30, 01:14:00,VALID,918.138,VALID,0,VALID,95.5318,VALID,-0.0339617,VALID,19.3565,VALID,173,VALID,0.736443,
2002-09-30, 01:15:00,VALID,918.138,VALID,0,VALID,95.5306,VALID,-0.0679233,VALID,19.3399,VALID,154,VALID,0.889423,
2002-09-30, 01:16:00,VALID,918.139,VALID,0,VALID,95.5687,VALID,-0.0509425,VALID,19.3498,VALID,165,VALID,0.945313,
2002-09-30, 01:17:00,VALID,918.128,VALID,0,VALID,95.5802,VALID,-0.0509425,VALID,19.3401,VALID,162,VALID,0.912543,
2002-09-30, 01:18:00,VALID,918.126,VALID,0,VALID,95.659,VALID,-0.0339617,VALID,19.3372,VALID,151,VALID,0.721094,
2002-09-30, 01:19:00,VALID,918.11,VALID,0,VALID,95.7455,VALID,-0.101885,VALID,19.3471,VALID,156,VALID,0.405303,
2002-09-30, 01:20:00,VALID,918.108,VALID,0,VALID,95.8141,VALID,-0.0509425,VALID,19.327,VALID,159,VALID,0.449436,
2002-09-30, 01:21:00,VALID,918.088,VALID,0,VALID,95.8561,VALID,-0.0339617,VALID,19.321,VALID,142,VALID,0.801172,
2002-09-30, 01:22:00,VALID,918.061,VALID,0,VALID,95.9057,VALID,-0.0509425,VALID,19.3116,VALID,163,VALID,0.629972,
2002-09-30, 01:23:00,VALID,918.04,VALID,0,VALID,95.982,VALID,-0.0509425,VALID,19.2885,VALID,188,VALID,0.402574,
2002-09-30, 01:24:00,VALID,918.012,VALID,0,VALID,96.1231,VALID,0,VALID,19.2817,VALID,179,VALID,0.217348,
2002-09-30, 01:25:00,VALID,917.997,VALID,0,VALID,96.1994,VALID,-0.0169808,VALID,19.282,VALID,168,VALID,0.790752,
2002-09-30, 01:26:00,VALID,917.974,VALID,0,VALID,96.277,VALID,0,VALID,19.2758,VALID,185,VALID,0.432215,
2002-09-30, 01:27:00,VALID,917.966,VALID,0,VALID,96.3444,VALID,-0.0169808,VALID,19.2562,VALID,165,VALID,0.729968,
2002-09-30, 01:28:00,VALID,917.948,VALID,0,VALID,96.3647,VALID,-0.0509425,VALID,19.2333,VALID,174,VALID,0.921875,
2002-09-30, 01:29:00,VALID,917.936,VALID,0,VALID,96.4385,VALID,-0.0339617,VALID,19.237,VALID,152,VALID,0.680339,
2002-09-30, 01:30:00,VALID,917.929,VALID,0,VALID,96.511,VALID,-0.0169808,VALID,19.2238,VALID,165,VALID,0.650391,
2002-09-30, 01:31:00,VALID,917.933,VALID,0,VALID,96.5491,VALID,-0.0339617,VALID,19.2243,VALID,145,VALID,0.701468,
2002-09-30, 01:32:00,VALID,917.932,VALID,0,VALID,96.6966,VALID,0,VALID,19.2107,VALID,138,VALID,0.135417,
2002-09-30, 01:33:00,VALID,917.92,VALID,0,VALID,96.7882,VALID,0.0849042,VALID,19.2095,VALID,109,VALID,0.275195,
2002-09-30, 01:34:00,VALID,917.925,VALID,0,VALID,96.7653,VALID,0.101885,VALID,19.1901,VALID,135,VALID,0.225379,
2002-09-30, 01:35:00,VALID,917.91,VALID,0,VALID,96.7818,VALID,0.0509425,VALID,19.1737,VALID,125,VALID,0.116958,
2002-09-30, 01:36:00,VALID,917.902,VALID,0,VALID,96.8263,VALID,0.0849042,VALID,19.1682,VALID,125,VALID,0.348558,
2002-09-30, 01:37:00,VALID,917.889,VALID,0,VALID,96.9026,VALID,0.101885,VALID,19.1454,VALID,144,VALID,0.438345,
2002-09-30, 01:38:00,VALID,917.882,VALID,0,VALID,97.0133,VALID,0.0509425,VALID,19.1387,VALID,141,VALID,0.091682,
2002-09-30, 01:39:00,VALID,917.883,VALID,0,VALID,97.0527,VALID,0.0339617,VALID,19.1324,VALID,132,VALID,0.607973,
2002-09-30, 01:40:00,VALID,917.874,VALID,0,VALID,97.0552,VALID,0.0509425,VALID,19.1257,VALID,118,VALID,0.771326,
2002-09-30, 01:41:00,VALID,917.873,VALID,0,VALID,97.0807,VALID,0.0679233,VALID,19.1091,VALID,136,VALID,0.423828,
2002-09-30, 01:42:00,VALID,917.859,VALID,0,VALID,97.1213,VALID,0.0679233,VALID,19.1093,VALID,134,VALID,0.658008,
2002-09-30, 01:43:00,VALID,917.856,VALID,0,VALID,97.1506,VALID,0.0679233,VALID,19.1093,VALID,137,VALID,0.744318,
2002-09-30, 01:44:00,VALID,917.86,VALID,0,VALID,97.2053,VALID,0.101885,VALID,19.1257,VALID,141,VALID,0.830946,
2002-09-30, 01:45:00,VALID,917.847,VALID,0,VALID,97.1824,VALID,0.0679233,VALID,19.1223,VALID,136,VALID,0.740039,
2002-09-30, 01:46:00,VALID,917.825,VALID,0,VALID,97.1926,VALID,0.101885,VALID,19.1357,VALID,136,VALID,0.606771,
2002-09-30, 01:47:00,VALID,917.812,VALID,0,VALID,97.204,VALID,0.0679233,VALID,19.1387,VALID,148,VALID,0.795726,
2002-09-30, 01:48:00,VALID,917.803,VALID,0,VALID,97.2116,VALID,0,VALID,19.1466,VALID,137,VALID,0.560697,
2002-09-30, 01:49:00,VALID,917.784,VALID,0,VALID,97.1849,VALID,0.0169808,VALID,19.1429,VALID,155,VALID,0.558388,
2002-09-30, 01:50:00,VALID,917.778,VALID,0,VALID,97.1569,VALID,-0.0169808,VALID,19.1533,VALID,147,VALID,0.595818,
2002-09-30, 01:51:00,VALID,917.762,VALID,0,VALID,97.1773,VALID,0,VALID,19.1401,VALID,142,VALID,0.83734,
2002-09-30, 01:52:00,VALID,917.761,VALID,0,VALID,97.2587,VALID,0,VALID,19.1235,VALID,140,VALID,1.00422,
2002-09-30, 01:53:00,VALID,917.761,VALID,0,VALID,97.3337,VALID,0.0169808,VALID,19.1302,VALID,162,VALID,1.26194,
2002-09-30, 01:54:00,VALID,917.772,VALID,0,VALID,97.3642,VALID,0.0169808,VALID,19.1232,VALID,140,VALID,0.825195,
2002-09-30, 01:55:00,VALID,917.762,VALID,0,VALID,97.4456,VALID,0,VALID,19.1299,VALID,139,VALID,0.982008,
2002-09-30, 01:56:00,VALID,917.764,VALID,0,VALID,97.5295,VALID,0.0169808,VALID,19.1202,VALID,154,VALID,1.2079,
2002-09-30, 01:57:00,VALID,917.754,VALID,0,VALID,97.588,VALID,0.0169808,VALID,19.1205,VALID,136,VALID,1.53926,
2002-09-30, 01:58:00,VALID,917.748,VALID,0,VALID,97.6287,VALID,0,VALID,19.1267,VALID,150,VALID,1.40199,
2002-09-30, 01:59:00,VALID,917.746,VALID,0,VALID,97.6402,VALID,0.0169808,VALID,19.1297,VALID,114,VALID,0.962546,
2002-09-30, 02:00:00,VALID,917.74,VALID,0,VALID,97.6376,VALID,0,VALID,19.1396,VALID,127,VALID,0.856971,
2002-09-30, 02:01:00,VALID,917.735,VALID,0,VALID,97.602,VALID,0,VALID,19.1461,VALID,115,VALID,0.478252,
2002-09-30, 02:02:00,VALID,917.737,VALID,0,VALID,97.5728,VALID,0,VALID,19.1461,VALID,134,VALID,0.846967,
2002-09-30, 02:03:00,VALID,917.726,VALID,0,VALID,97.5283,VALID,0,VALID,19.1563,VALID,145,VALID,0.61879,
2002-09-30, 02:04:00,VALID,917.732,VALID,0,VALID,97.4672,VALID,0,VALID,19.1761,VALID,137,VALID,0.556377,
2002-09-30, 02:05:00,VALID,917.713,VALID,0,VALID,97.3655,VALID,0,VALID,19.1657,VALID,89,VALID,1.00694,
2002-09-30, 02:06:00,VALID,917.707,VALID,0,VALID,97.2701,VALID,0.0169808,VALID,19.1689,VALID,92,VALID,0.720898,
2002-09-30, 02:07:00,VALID,917.699,VALID,0,VALID,97.2358,VALID,0,VALID,19.1853,VALID,85,VALID,0.812737,
2002-09-30, 02:08:00,VALID,917.685,VALID,0,VALID,97.1887,VALID,-0.0169808,VALID,19.1756,VALID,76,VALID,0.588542,
2002-09-30, 02:09:00,VALID,917.676,VALID,0,VALID,97.1493,VALID,0,VALID,19.1821,VALID,89,VALID,0.531445,
2002-09-30, 02:10:00,VALID,917.65,VALID,0,VALID,97.0883,VALID,0,VALID,19.1786,VALID,50,VALID,0.452415,
2002-09-30, 02:11:00,VALID,917.639,VALID,0,VALID,97.0069,VALID,0,VALID,19.1759,VALID,62,VALID,0.350414,
2002-09-30, 02:12:00,VALID,917.619,VALID,0,VALID,96.9865,VALID,0,VALID,19.1563,VALID,78,VALID,0.401843,
2002-09-30, 02:13:00,VALID,917.597,VALID,0,VALID,97.0145,VALID,0,VALID,19.1498,VALID,122,VALID,0.511824,
2002-09-30, 02:14:00,VALID,917.58,VALID,0,VALID,97.0463,VALID,0.0169808,VALID,19.1431,VALID,93,VALID,0.273667,
2002-09-30, 02:15:00,VALID,917.561,VALID,0,VALID,97.0234,VALID,0,VALID,19.1205,VALID,73,VALID,0.302284,
2002-09-30, 02:16:00,VALID,917.553,VALID,0,VALID,97.0883,VALID,0,VALID,19.1145,VALID,90,VALID,0.662162,
2002-09-30, 02:17:00,VALID,917.532,VALID,0,VALID,97.1773,VALID,-0.0339617,VALID,19.0981,VALID,104,VALID,0.692491,
2002-09-30, 02:18:00,VALID,917.532,VALID,0,VALID,97.2116,VALID,-0.101885,VALID,19.0896,VALID,100,VALID,0.823828,
2002-09-30, 02:19:00,VALID,917.528,VALID,0,VALID,97.2231,VALID,-0.0679233,VALID,19.0834,VALID,98,VALID,0.608665,
2002-09-30, 02:20:00,VALID,917.513,VALID,0,VALID,97.2981,VALID,-0.0849042,VALID,19.0506,VALID,87,VALID,0.678385,
2002-09-30, 02:21:00,VALID,917.501,VALID,0,VALID,97.3922,VALID,-0.0849042,VALID,19.0377,VALID,92,VALID,0.846875,
2002-09-30, 02:22:00,VALID,917.504,VALID,0,VALID,97.4927,VALID,-0.101885,VALID,19.0317,VALID,87,VALID,0.909328,
2002-09-30, 02:23:00,VALID,917.482,VALID,0,VALID,97.5422,VALID,-0.101885,VALID,19.0215,VALID,76,VALID,1.02849,
2002-09-30, 02:24:00,VALID,917.478,VALID,0,VALID,97.5397,VALID,-0.101885,VALID,19.0248,VALID,68,VALID,0.941907,
2002-09-30, 02:25:00,VALID,917.474,VALID,0,VALID,97.4876,VALID,-0.0849042,VALID,18.9922,VALID,68,VALID,0.755912,
2002-09-30, 02:26:00,VALID,917.475,VALID,0,VALID,97.4927,VALID,-0.101885,VALID,18.983,VALID,70,VALID,0.685892,
2002-09-30, 02:27:00,VALID,917.476,VALID,0,VALID,97.5003,VALID,-0.101885,VALID,18.9669,VALID,64,VALID,0.472556,
2002-09-30, 02:28:00,VALID,917.492,VALID,0,VALID,97.4596,VALID,-0.0679233,VALID,18.9507,VALID,60,VALID,0.794552,
2002-09-30, 02:29:00,VALID,917.484,VALID,0,VALID,97.4914,VALID,-0.0679233,VALID,18.9348,VALID,57,VALID,0.586155,
2002-09-30, 02:30:00,VALID,917.514,VALID,0,VALID,97.5066,VALID,-0.0849042,VALID,18.9087,VALID,58,VALID,0.388672,
2002-09-30, 02:31:00,VALID,917.503,VALID,0,VALID,97.5257,VALID,-0.101885,VALID,18.8893,VALID,81,VALID,0.411695,
2002-09-30, 02:32:00,VALID,917.499,VALID,0,VALID,97.5969,VALID,-0.0509425,VALID,18.8831,VALID,82,VALID,0.438802,
2002-09-30, 02:33:00,VALID,917.501,VALID,0,VALID,97.6134,VALID,0.0169808,VALID,18.8653,VALID,82,VALID,0.271484,
2002-09-30, 02:34:00,VALID,917.509,VALID,0,VALID,97.6491,VALID,0,VALID,18.863,VALID,80,VALID,0.281487,
2002-09-30, 02:35:00,VALID,917.496,VALID,0,VALID,97.6821,VALID,0,VALID,18.8427,VALID,80,VALID,0.0202206,
2002-09-30, 02:36:00,VALID,917.492,VALID,0,VALID,97.6885,VALID,0,VALID,18.8298,VALID,80,VALID,0.000801282,
2002-09-30, 02:37:00,VALID,917.482,VALID,0,VALID,97.7203,VALID,0.0169808,VALID,18.8166,VALID,80,VALID,0,
2002-09-30, 02:38:00,VALID,917.468,VALID,0,VALID,97.7393,VALID,-0.0169808,VALID,18.8106,VALID,80,VALID,0,
2002-09-30, 02:39:00,VALID,917.461,VALID,0,VALID,97.7648,VALID,-0.0169808,VALID,18.7975,VALID,80,VALID,0,
2002-09-30, 02:40:00,VALID,917.444,VALID,0,VALID,97.7139,VALID,0,VALID,18.7943,VALID,80,VALID,0,
2002-09-30, 02:41:00,VALID,917.436,VALID,0,VALID,97.6834,VALID,0,VALID,18.7721,VALID,80,VALID,0,
2002-09-30, 02:42:00,VALID,917.419,VALID,0,VALID,97.6554,VALID,0,VALID,18.7426,VALID,80,VALID,0,
2002-09-30, 02:43:00,VALID,917.41,VALID,0,VALID,97.5893,VALID,0.0169808,VALID,18.7204,VALID,80,VALID,0,
2002-09-30, 02:44:00,VALID,917.421,VALID,0,VALID,97.555,VALID,0.0169808,VALID,18.6879,VALID,80,VALID,0,
2002-09-30, 02:45:00,VALID,917.412,VALID,0,VALID,97.5003,VALID,0,VALID,18.6492,VALID,80,VALID,0,
2002-09-30, 02:46:00,VALID,917.409,VALID,0,VALID,97.5041,VALID,-0.0169808,VALID,18.6201,VALID,80,VALID,0,
2002-09-30, 02:47:00,VALID,917.402,VALID,0,VALID,97.5779,VALID,0,VALID,18.6044,VALID,80,VALID,0,
2002-09-30, 02:48:00,VALID,917.412,VALID,0,VALID,97.6796,VALID,-0.0169808,VALID,18.5945,VALID,80,VALID,0,
2002-09-30, 02:49:00,VALID,917.403,VALID,0,VALID,97.7355,VALID,0,VALID,18.5749,VALID,80,VALID,0,
2002-09-30, 02:50:00,VALID,917.4,VALID,0,VALID,97.7762,VALID,0,VALID,18.562,VALID,80,VALID,0.00919118,
2002-09-30, 02:51:00,VALID,917.4,VALID,0,VALID,97.7788,VALID,0,VALID,18.546,VALID,80,VALID,0.0823317,
2002-09-30, 02:52:00,VALID,917.398,VALID,0,VALID,97.8436,VALID,-0.0169808,VALID,18.5202,VALID,80,VALID,0.279772,
2002-09-30, 02:53:00,VALID,917.4,VALID,0,VALID,98.0407,VALID,0,VALID,18.5237,VALID,80,VALID,0.41059,
2002-09-30, 02:54:00,VALID,917.411,VALID,0,VALID,98.1691,VALID,0,VALID,18.5527,VALID,91,VALID,0.463086,
2002-09-30, 02:55:00,VALID,917.404,VALID,0,VALID,98.2175,VALID,0,VALID,18.5622,VALID,92,VALID,0.468987,
2002-09-30, 02:56:00,VALID,917.406,VALID,0,VALID,98.2098,VALID,0.0169808,VALID,18.5786,VALID,93,VALID,0.330512,
2002-09-30, 02:57:00,VALID,917.406,VALID,0,VALID,98.1577,VALID,0,VALID,18.5723,VALID,94,VALID,0.113672,
2002-09-30, 02:58:00,VALID,917.4,VALID,0,VALID,97.9593,VALID,0,VALID,18.514,VALID,94,VALID,0.0331439,
2002-09-30, 02:59:00,VALID,917.409,VALID,0,VALID,97.78,VALID,0,VALID,18.4489,VALID,94,VALID,0,
2002-09-30, 03:00:00,VALID,917.42,VALID,0,VALID,97.6414,VALID,0,VALID,18.4079,VALID,94,VALID,0,
2002-09-30, 03:01:00,VALID,917.417,VALID,0,VALID,97.5105,VALID,0,VALID,18.3333,VALID,94,VALID,0.00105574,
2002-09-30, 03:02:00,VALID,917.416,VALID,0,VALID,97.5333,VALID,-0.0169808,VALID,18.2946,VALID,94,VALID,0,
2002-09-30, 03:03:00,VALID,917.426,VALID,0,VALID,97.527,VALID,0.0169808,VALID,18.2492,VALID,94,VALID,0,
2002-09-30, 03:04:00,VALID,917.424,VALID,0,VALID,97.5842,VALID,0,VALID,18.2203,VALID,94,VALID,0,
2002-09-30, 03:05:00,VALID,917.418,VALID,0,VALID,97.7495,VALID,0,VALID,18.2235,VALID,94,VALID,0,
2002-09-30, 03:06:00,VALID,917.425,VALID,0,VALID,97.7444,VALID,0,VALID,18.1977,VALID,91,VALID,0.104297,
2002-09-30, 03:07:00,VALID,917.418,VALID,0,VALID,97.6033,VALID,0.0339617,VALID,18.159,VALID,71,VALID,0.629261,
2002-09-30, 03:08:00,VALID,917.423,VALID,0,VALID,97.6122,VALID,0,VALID,18.1006,VALID,63,VALID,0.873915,
2002-09-30, 03:09:00,VALID,917.436,VALID,0,VALID,97.8843,VALID,0,VALID,18.1071,VALID,60,VALID,0.875,
2002-09-30, 03:10:00,VALID,917.432,VALID,0,VALID,98.0763,VALID,0,VALID,18.1234,VALID,60,VALID,0.971354,
2002-09-30, 03:11:00,VALID,917.438,VALID,0,VALID,98.3713,VALID,0,VALID,18.1654,VALID,57,VALID,1.12776,
2002-09-30, 03:12:00,VALID,917.451,VALID,0,VALID,98.6536,VALID,0,VALID,18.2399,VALID,56,VALID,1.15785,
2002-09-30, 03:13:00,VALID,917.454,VALID,0,VALID,98.8329,VALID,-0.0169808,VALID,18.3209,VALID,55,VALID,1.13682,
2002-09-30, 03:14:00,VALID,917.458,VALID,0,VALID,98.7871,VALID,0,VALID,18.3433,VALID,55,VALID,0.967831,
2002-09-30, 03:15:00,VALID,917.472,VALID,0,VALID,98.7363,VALID,0,VALID,18.3336,VALID,56,VALID,0.907252,
2002-09-30, 03:16:00,VALID,917.477,VALID,0,VALID,98.8113,VALID,0,VALID,18.3426,VALID,60,VALID,1.05532,
2002-09-30, 03:17:00,VALID,917.487,VALID,0,VALID,98.8978,VALID,-0.0169808,VALID,18.3726,VALID,60,VALID,1.07661,
2002-09-30, 03:18:00,VALID,917.503,VALID,0,VALID,98.9067,VALID,0,VALID,18.3952,VALID,61,VALID,1.1752,
2002-09-30, 03:19:00,VALID,917.506,VALID,0,VALID,98.8978,VALID,-0.0169808,VALID,18.4116,VALID,61,VALID,1.23556,
2002-09-30, 03:20:00,VALID,917.506,VALID,0,VALID,98.8634,VALID,0,VALID,18.3979,VALID,59,VALID,1.35482,
2002-09-30, 03:21:00,VALID,917.515,VALID,0,VALID,98.8278,VALID,-0.0169808,VALID,18.4016,VALID,54,VALID,1.3373,
2002-09-30, 03:22:00,VALID,917.518,VALID,0,VALID,98.7833,VALID,0,VALID,18.3753,VALID,52,VALID,1.24598,
2002-09-30, 03:23:00,VALID,917.511,VALID,0,VALID,98.7757,VALID,0,VALID,18.3629,VALID,53,VALID,1.23208,
2002-09-30, 03:24:00,VALID,917.509,VALID,0,VALID,98.7757,VALID,0,VALID,18.356,VALID,56,VALID,1.15365,
2002-09-30, 03:25:00,VALID,917.516,VALID,0,VALID,98.7121,VALID,0,VALID,18.3301,VALID,56,VALID,1.18074,
2002-09-30, 03:26:00,VALID,917.503,VALID,0,VALID,98.7388,VALID,0,VALID,18.3107,VALID,52,VALID,1.07077,
2002-09-30, 03:27:00,VALID,917.515,VALID,0,VALID,98.7312,VALID,0,VALID,18.2946,VALID,52,VALID,1.01883,
2002-09-30, 03:28:00,VALID,917.51,VALID,0,VALID,98.8393,VALID,0,VALID,18.3011,VALID,59,VALID,1.12141,
2002-09-30, 03:29:00,VALID,917.503,VALID,0,VALID,98.8622,VALID,0,VALID,18.3142,VALID,57,VALID,1.06272,
2002-09-30, 03:30:00,VALID,917.504,VALID,0,VALID,98.7045,VALID,0,VALID,18.2757,VALID,50,VALID,0.721875,
2002-09-30, 03:31:00,VALID,917.498,VALID,0,VALID,98.6295,VALID,-0.0169808,VALID,18.1913,VALID,42,VALID,0.447443,
2002-09-30, 03:32:00,VALID,917.487,VALID,0,VALID,98.4196,VALID,0,VALID,18.0909,VALID,39,VALID,0.184896,
2002-09-30, 03:33:00,VALID,917.48,VALID,0,VALID,98.323,VALID,0,VALID,18.0111,VALID,39,VALID,0,
2002-09-30, 03:34:00,VALID,917.477,VALID,0,VALID,98.4146,VALID,-0.0339617,VALID,17.9816,VALID,39,VALID,0.022964,
2002-09-30, 03:35:00,VALID,917.476,VALID,0,VALID,98.4336,VALID,0.0169808,VALID,17.9587,VALID,39,VALID,0,
2002-09-30, 03:36:00,VALID,917.48,VALID,0,VALID,98.4146,VALID,0,VALID,17.9396,VALID,39,VALID,0,